| time (UTC) | temp F | wind direction | speed MPH | gust MPH | rain 1hr in | rain 24hr in | rain mn in | humidity % | barometer mb |
| 20260903130041 | 72 | 53 | 1.0 | 3.0 | 0.00 | 0.00 | 0.00 | 91 | 1021.7 |
| 20260903124532 | 71 | 333 | 0.0 | 0.0 | 0.00 | 0.00 | 0.00 | 94 | 1021.8 |
| 20260903123004 | 69 | 333 | 0.0 | 0.0 | 0.00 | 0.00 | 0.00 | 98 | 1021.9 |
| 20260903121502 | 67 | 333 | 0.0 | 0.0 | 0.00 | 0.00 | 0.00 | 98 | 1021.9 |
| 20260903120010 | 66 | 333 | 0.0 | 0.0 | 0.00 | 0.00 | 0.00 | 98 | 1022.0 |
| 20260903114514 | 65 | 333 | 0.0 | 0.0 | 0.00 | 0.00 | 0.00 | 99 | 1021.9 |
| 20260903113032 | 64 | 333 | 0.0 | 0.0 | 0.00 | 0.00 | 0.00 | 98 | 1021.9 |
| 20260903111505 | 64 | 333 | 0.0 | 0.0 | 0.00 | 0.00 | 0.00 | 98 | 1021.8 |
| 20260903110007 | 64 | 333 | 0.0 | 0.0 | 0.00 | 0.00 | 0.00 | 98 | 1021.5 |
| 20260903104512 | 64 | 333 | 0.0 | 0.0 | 0.00 | 0.00 | 0.00 | 98 | 1021.4 |
| 20260903103018 | 64 | 333 | 0.0 | 0.0 | 0.00 | 0.00 | 0.00 | 98 | 1021.3 |
| 20260903101523 | 64 | 333 | 0.0 | 0.0 | 0.00 | 0.00 | 0.00 | 98 | 1021.1 |
| 20260903100032 | 64 | 333 | 0.0 | 2.0 | 0.00 | 0.00 | 0.00 | 98 | 1021.1 |
| 20260903094523 | 64 | 333 | 0.0 | 1.0 | 0.00 | 0.00 | 0.00 | 98 | 1021.1 |
| 20260903093015 | 64 | 333 | 0.0 | 2.0 | 0.00 | 0.00 | 0.00 | 98 | 1021.1 |
| 20260903091523 | 64 | 333 | 0.0 | 1.0 | 0.00 | 0.00 | 0.00 | 97 | 1021.0 |
| 20260903090026 | 64 | 333 | 1.0 | 2.0 | 0.00 | 0.00 | 0.00 | 98 | 1020.9 |
| 20260903084532 | 65 | 333 | 0.0 | 2.0 | 0.00 | 0.00 | 0.00 | 97 | 1020.8 |
| 20260903083010 | 65 | 333 | 0.0 | 2.0 | 0.00 | 0.00 | 0.00 | 97 | 1020.7 |
| 20260903081525 | 65 | 333 | 0.0 | 2.0 | 0.00 | 0.00 | 0.00 | 97 | 1020.8 |
| 20260903080027 | 65 | 333 | 0.0 | 2.0 | 0.00 | 0.00 | 0.00 | 97 | 1020.9 |
| 20260903074530 | 65 | 333 | 1.0 | 3.0 | 0.00 | 0.00 | 0.00 | 97 | 1020.9 |
| 20260903073030 | 65 | 311 | 1.0 | 4.0 | 0.00 | 0.00 | 0.00 | 97 | 1020.8 |
| 20260903071515 | 66 | 300 | 1.0 | 4.0 | 0.00 | 0.00 | 0.00 | 97 | 1020.8 |
| 20260903070033 | 66 | 300 | 2.0 | 4.0 | 0.00 | 0.00 | 0.00 | 97 | 1020.9 |
| 20260903064527 | 66 | 304 | 2.0 | 3.0 | 0.00 | 0.00 | 0.00 | 97 | 1020.9 |
| 20260903063028 | 66 | 281 | 1.0 | 4.0 | 0.00 | 0.00 | 0.00 | 97 | 1020.9 |
| 20260903061547 | 66 | 304 | 1.0 | 4.0 | 0.00 | 0.00 | 0.00 | 97 | 1021.1 |
| 20260903060019 | 66 | 304 | 0.0 | 2.0 | 0.00 | 0.00 | 0.00 | 97 | 1021.2 |
| 20260903054541 | 66 | 304 | 1.0 | 3.0 | 0.00 | 0.00 | 0.00 | 97 | 1021.1 |
| 20260903053036 | 66 | 308 | 1.0 | 3.0 | 0.00 | 0.00 | 0.00 | 97 | 1021.0 |
| 20260903051529 | 66 | 321 | 1.0 | 2.0 | 0.00 | 0.00 | 0.00 | 96 | 1020.9 |
| 20260903050033 | 66 | 314 | 1.0 | 4.0 | 0.00 | 0.00 | 0.00 | 96 | 1021.0 |
| 20260903044523 | 66 | 319 | 2.0 | 4.0 | 0.00 | 0.00 | 0.00 | 97 | 1021.0 |
| 20260903043027 | 66 | 302 | 1.0 | 3.0 | 0.00 | 0.00 | 0.00 | 96 | 1021.2 |
| 20260903041531 | 67 | 248 | 0.0 | 0.0 | 0.00 | 0.00 | 0.00 | 95 | 1021.2 |
| 20260903040012 | 67 | 248 | 0.0 | 0.0 | 0.00 | 0.00 | 0.00 | 95 | 1021.2 |
| 20260903034503 | 67 | 244 | 2.0 | 6.0 | 0.00 | 0.00 | 0.00 | 96 | 1021.2 |
| 20260903033002 | 68 | 309 | 1.0 | 3.0 | 0.00 | 0.00 | 0.00 | 96 | 1021.3 |
| 20260903031505 | 68 | 258 | 2.0 | 4.0 | 0.00 | 0.00 | 0.00 | 96 | 1021.1 |
| 20260903030019 | 69 | 305 | 1.0 | 3.0 | 0.00 | 0.00 | 0.00 | 95 | 1021.0 |
| 20260903024527 | 69 | 305 | 1.0 | 4.0 | 0.00 | 0.00 | 0.00 | 95 | 1021.2 |
| 20260903023020 | 69 | 269 | 0.0 | 4.0 | 0.00 | 0.00 | 0.00 | 95 | 1021.4 |
| 20260903021503 | 70 | 315 | 2.0 | 4.0 | 0.00 | 0.00 | 0.00 | 95 | 1021.3 |
| 20260903020008 | 70 | 306 | 2.0 | 4.0 | 0.00 | 0.00 | 0.00 | 94 | 1021.2 |
| 20260903014510 | 70 | 302 | 1.0 | 4.0 | 0.00 | 0.00 | 0.00 | 94 | 1021.4 |
| 20260903013018 | 71 | 295 | 2.0 | 3.0 | 0.00 | 0.00 | 0.00 | 94 | 1021.3 |
| 20260903011537 | 72 | 321 | 2.0 | 4.0 | 0.00 | 0.00 | 0.00 | 93 | 1021.3 |
| 20260903010007 | 72 | 315 | 0.0 | 4.0 | 0.00 | 0.00 | 0.00 | 92 | 1021.3 |
| 20260903004517 | 73 | 313 | 2.0 | 4.0 | 0.00 | 0.00 | 0.00 | 91 | 1021.1 |
| 20260903003015 | 73 | 306 | 2.0 | 4.0 | 0.00 | 0.00 | 0.00 | 91 | 1020.9 |
| 20260903001520 | 74 | 298 | 2.0 | 7.0 | 0.00 | 0.00 | 0.00 | 90 | 1020.7 |
| 20260903000028 | 75 | 302 | 2.0 | 5.0 | 0.00 | 0.00 | 0.00 | 88 | 1020.4 |
| 20260902234506 | 76 | 282 | 3.0 | 6.0 | 0.00 | 0.00 | 0.00 | 86 | 1020.6 |
| 20260902233025 | 77 | 301 | 2.0 | 4.0 | 0.00 | 0.00 | 0.00 | 84 | 1020.6 |
| 20260902231517 | 79 | 296 | 2.0 | 4.0 | 0.00 | 0.00 | 0.00 | 81 | 1020.5 |
| 20260902230027 | 81 | 319 | 1.0 | 4.0 | 0.00 | 0.00 | 0.00 | 77 | 1020.4 |
| 20260902224527 | 83 | 300 | 1.0 | 4.0 | 0.00 | 0.00 | 0.00 | 73 | 1020.4 |
| 20260902223006 | 85 | 306 | 0.0 | 4.0 | 0.00 | 0.00 | 0.00 | 69 | 1020.4 |
| 20260902221517 | 85 | 324 | 2.0 | 7.0 | 0.00 | 0.00 | 0.00 | 66 | 1020.3 |
| 20260902220019 | 85 | 310 | 4.0 | 9.0 | 0.00 | 0.00 | 0.00 | 62 | 1020.3 |
| 20260902214527 | 86 | 295 | 5.0 | 9.0 | 0.00 | 0.00 | 0.00 | 61 | 1020.5 |
| 20260902213030 | 86 | 305 | 6.0 | 10.0 | 0.00 | 0.00 | 0.00 | 59 | 1020.4 |
| 20260902211511 | 86 | 304 | 5.0 | 11.0 | 0.00 | 0.00 | 0.00 | 59 | 1020.4 |
| 20260902210015 | 87 | 294 | 5.0 | 11.0 | 0.00 | 0.00 | 0.00 | 59 | 1020.6 |
| 20260902204537 | 87 | 307 | 7.0 | 11.0 | 0.00 | 0.00 | 0.00 | 57 | 1020.7 |
| 20260902203028 | 87 | 350 | 3.0 | 8.0 | 0.00 | 0.00 | 0.00 | 57 | 1020.6 |
| 20260902201533 | 87 | 320 | 4.0 | 10.0 | 0.00 | 0.00 | 0.00 | 59 | 1020.6 |
| 20260902200012 | 87 | 301 | 6.0 | 12.0 | 0.00 | 0.00 | 0.00 | 58 | 1020.8 |
| 20260902194519 | 88 | 307 | 5.0 | 14.0 | 0.00 | 0.00 | 0.00 | 55 | 1021.0 |
| 20260902193028 | 87 | 318 | 4.0 | 10.0 | 0.00 | 0.00 | 0.00 | 59 | 1021.1 |
| 20260902191529 | 87 | 323 | 6.0 | 10.0 | 0.00 | 0.00 | 0.00 | 61 | 1021.1 |
| 20260902190034 | 87 | 298 | 3.0 | 11.0 | 0.00 | 0.00 | 0.00 | 61 | 1021.3 |
| 20260902184514 | 88 | 328 | 4.0 | 10.0 | 0.00 | 0.00 | 0.00 | 56 | 1021.4 |
| 20260902183003 | 87 | 167 | 2.0 | 7.0 | 0.00 | 0.00 | 0.00 | 60 | 1021.6 |
| 20260902181504 | 86 | 348 | 2.0 | 10.0 | 0.00 | 0.00 | 0.00 | 64 | 1021.7 |
| 20260902180005 | 85 | 335 | 5.0 | 12.0 | 0.00 | 0.00 | 0.00 | 65 | 1021.9 |
| 20260902174502 | 85 | 336 | 4.0 | 10.0 | 0.00 | 0.00 | 0.00 | 64 | 1022.0 |
| 20260902173005 | 85 | 330 | 7.0 | 12.0 | 0.00 | 0.00 | 0.00 | 62 | 1022.1 |
| 20260902171502 | 85 | 316 | 3.0 | 10.0 | 0.00 | 0.00 | 0.00 | 64 | 1022.3 |
| 20260902170003 | 84 | 325 | 5.0 | 13.0 | 0.00 | 0.00 | 0.00 | 64 | 1022.3 |
| 20260902164503 | 85 | 329 | 5.0 | 13.0 | 0.00 | 0.00 | 0.00 | 67 | 1022.4 |
| 20260902163004 | 84 | 318 | 4.0 | 13.0 | 0.00 | 0.00 | 0.00 | 65 | 1022.5 |
| 20260902161503 | 84 | 309 | 6.0 | 10.0 | 0.00 | 0.00 | 0.00 | 67 | 1022.8 |
| 20260902160005 | 84 | 317 | 4.0 | 10.0 | 0.00 | 0.00 | 0.00 | 67 | 1022.7 |
| 20260902154503 | 83 | 344 | 4.0 | 11.0 | 0.00 | 0.00 | 0.00 | 70 | 1022.8 |
| 20260902153003 | 83 | 326 | 5.0 | 9.0 | 0.00 | 0.00 | 0.00 | 69 | 1022.8 |
| 20260902151504 | 83 | 340 | 3.0 | 8.0 | 0.00 | 0.00 | 0.00 | 69 | 1023.0 |
| 20260902150004 | 82 | 157 | 4.0 | 9.0 | 0.00 | 0.00 | 0.00 | 75 | 1022.9 |
| 20260902144503 | 81 | 131 | 1.0 | 8.0 | 0.00 | 0.00 | 0.00 | 74 | 1023.0 |
| 20260902143004 | 81 | 165 | 2.0 | 7.0 | 0.00 | 0.00 | 0.00 | 76 | 1022.9 |
| 20260902141506 | 80 | 117 | 1.0 | 4.0 | 0.00 | 0.00 | 0.00 | 79 | 1023.0 |
| 20260902140004 | 78 | 107 | 1.0 | 3.0 | 0.00 | 0.00 | 0.00 | 83 | 1022.9 |
| 20260902134503 | 77 | 5 | 2.0 | 4.0 | 0.00 | 0.00 | 0.00 | 85 | 1022.7 |
| 20260902133004 | 75 | 130 | 2.0 | 3.0 | 0.00 | 0.00 | 0.00 | 87 | 1022.8 |
| 20260902131504 | 73 | 115 | 0.0 | 2.0 | 0.00 | 0.00 | 0.00 | 91 | 1022.9 |